This is the latest recevied weather packets stored in our database for station/object KE8URB. If no packets are shown the sender has not sent any weather packets the latest 10 day(s).
| Time | Temp. | Humidity | Pressure | Rain* | Wind** | Luminosity | Snow |
|---|---|---|---|---|---|---|---|
| 1787876878 | 22.78° C | 85% | 1015.4 hPa | 0 mm | - | 0 W/m² | - |
| 1787876574 | 22.78° C | 85% | 1015.3 hPa | 0 mm | - | 0 W/m² | - |
| 1787876273 | 23.33° C | 84% | 1015.4 hPa | 0 mm | - | 0 W/m² | - |
| 1787875972 | 23.33° C | 84% | 1015.4 hPa | 0 mm | - | 0 W/m² | - |
| 1787875668 | 23.89° C | 82% | 1015.4 hPa | 0 mm | - | 0 W/m² | - |
| 1787875366 | 23.89° C | 81% | 1015.2 hPa | 0 mm | - | 1 W/m² | - |
| 1787875065 | 24.44° C | 80% | 1015.2 hPa | 0 mm | - | 2 W/m² | - |
| 1787874760 | 25° C | 80% | 1015.2 hPa | 0 mm | - | 5 W/m² | - |
| 1787874458 | 25° C | 77% | 1015.1 hPa | 0 mm | - | 8 W/m² | - |
| 1787874153 | 25.56° C | 76% | 1015.1 hPa | 0 mm | - | 10 W/m² | - |
| 1787873849 | 25.56° C | 74% | 1015.1 hPa | 0 mm | - | 12 W/m² | - |
| 1787873548 | 25.56° C | 75% | 1015 hPa | 0 mm | - | 16 W/m² | - |
| 1787873244 | 26.11° C | 73% | 1015 hPa | 0 mm | - | 19 W/m² | - |
| 1787872942 | 26.11° C | 74% | 1014.8 hPa | 0 mm | - | 21 W/m² | - |
| 1787872638 | 26.67° C | 73% | 1015 hPa | 0 mm | - | 24 W/m² | - |
| 1787872332 | 26.11° C | 72% | 1014.8 hPa | 0 mm | - | 24 W/m² | - |
| 1787872028 | 26.11° C | 73% | 1015.1 hPa | 0 mm | - | 36 W/m² | - |
| 1787871723 | 26.11° C | 74% | 1014.7 hPa | 0 mm | - | 27 W/m² | - |
| 1787871418 | 26.67° C | 71% | 1014.8 hPa | 0 mm | - | 40 W/m² | - |
| 1787871113 | 26.11° C | 72% | 1014.8 hPa | 0 mm | - | 82 W/m² | - |
| 1787870812 | 26.11° C | 73% | 1014.8 hPa | 0 mm | - | 67 W/m² | - |
| 1787870508 | 26.11° C | 71% | 1014.6 hPa | 0 mm | - | 27 W/m² | - |
| 1787870203 | 26.11° C | 70% | 1014.7 hPa | 0 mm | - | 22 W/m² | - |
| 1787869898 | 27.22° C | 68% | 1014.6 hPa | 0 mm | - | 33 W/m² | - |
| 1787869596 | 27.22° C | 69% | 1014.6 hPa | 0 mm | - | 107 W/m² | - |
* Rain latest hour (hover to see other rain measurements)
** Current wind speed in m/s (hover to see current wind gust speed)